Location: Champseau
(45.8333°N, 1.7667°E)
Time: 07:07:44
(UTC+00:00)

Envisat - Pass Details

Date: 26 September 2021
Orbit: 764 x 766 km, 98.2° (Epoch: 25 October)

Event Time Altitude Azimuth Distance (km) Brightness Sun altitude
Rises 04:59:10 0° 15° (NNE) 3,243 6.6 -8.8°
Reaches altitude 10° 05:01:30 10° 17° (NNE) 2,312 5.8 -8.4°
Maximum altitude 05:06:35 72° 102° (ESE) 808 3.4 -7.5°
Drops below altitude 10° 05:11:38 10° 187° (S) 2,294 5.4 -6.6°
Sets 05:13:56 0° 189° (S) 3,215 6.1 -6.2°
